Flag for Austria Weather past 2 weeks in Kapfenberg, Styria, Austria

Now
48 °F

Partly sunny.


Feels Like: 48 °F
Forecast: 44 / 63 °F
Wind: 2 mph from North

Location: Zeltweg


UV Index: 0 (Low)

Visibility: 12 mi


Pressure: 29.95 "Hg

Humidity: 82%

Dew point: 43 °F

Location of KapfenbergLocation

Historic Weather in Kapfenberg

°F

Kapfenberg temperature yesterday

Maximum temperature yesterday: 64 °F (at 2:50 PM)
Minimum temperature yesterday: 45 °F (at 5:50 AM)
Average temperature yesterday: 57 °F

Past Weeks' High & Low Weather Summary

 TemperatureHumidityPressure
High64 °F (Apr 23, 12:50 PM)100% (Apr 14, 6:50 AM)30.24 "Hg (Apr 14, 6:50 AM)
Low25 °F (Apr 18, 5:50 AM)20% (Apr 18, 1:50 PM)29.68 "Hg (Apr 18, 4:20 PM)
Average49 °F66%29.95 "Hg
* Reported Apr 10 7:20 AM — Apr 25 7:20 AM, Kapfenberg, Weather by CustomWeather, © 2014

Note: Actual official high and low records may vary slightly from our data, if they occured in-between our weather recording intervals... More about our weather records

Advertising

Historic Weather Conditions — Data for Previous 24 hours

 ConditionsComfort  
Time TempWeatherWind HumidityBarometerVisibility
7:20 AM
Apr 25
46 °FPartly sunny.2 mph87%29.95 "Hg12 mi
6:50 AM46 °FPassing clouds.1 mph87%29.95 "Hg16 mi
5:50 AM43 °FPartly cloudy.2 mph93%29.95 "Hg16 mi
10:50 PM
Apr 24
52 °FPassing clouds.2 mph82%30.01 "Hg16 mi
9:50 PM54 °FPassing clouds.1 mph77%29.98 "Hg16 mi
8:50 PM57 °FBroken clouds.2 mph67%29.98 "Hg16 mi
7:50 PM59 °FPartly sunny.5 mph63%29.98 "Hg16 mi
7:20 PM61 °FPartly sunny.7 mph55%29.98 "Hg16 mi
6:50 PM61 °FPartly sunny.3 mph55%29.98 "Hg16 mi
6:20 PM61 °FBroken clouds.5 mph59%29.98 "Hg19 mi
5:50 PM63 °FBroken clouds.7 mph52%29.98 "Hg19 mi
5:20 PM64 °FBroken clouds.5 mph46%29.98 "Hg19 mi
4:50 PM64 °FPartly sunny.8 mph49%29.98 "Hg16 mi
4:20 PM63 °FScattered clouds.8 mph52%29.98 "Hg16 mi
3:50 PM63 °FBroken clouds.3 mph45%29.98 "Hg16 mi
3:20 PM64 °FBroken clouds.6 mph46%30.01 "Hg16 mi
2:50 PM64 °FBroken clouds.8 mph49%30.01 "Hg16 mi
2:20 PM63 °FBroken clouds.9 mph52%30.01 "Hg16 mi
1:50 PM63 °FPartly sunny.1 mph52%30.01 "Hg16 mi
1:20 PM63 °FPartly sunny.2 mph52%30.01 "Hg16 mi
12:50 PM63 °FPartly sunny.2 mph56%30.01 "Hg19 mi
12:20 PM63 °FPartly sunny.3 mph52%30.04 "Hg19 mi
11:50 AM61 °FBroken clouds.2 mph59%30.04 "Hg19 mi
11:20 AM57 °FBroken clouds.1 mph67%30.04 "Hg19 mi
10:50 AM57 °FBroken clouds.1 mph72%30.04 "Hg19 mi
10:20 AM54 °FBroken clouds.1 mph82%30.04 "Hg16 mi
9:50 AM52 °FBroken clouds.1 mph88%30.07 "Hg12 mi
9:20 AM50 °FBroken clouds.1 mph94%30.07 "Hg7 mi
8:50 AM48 °FBroken clouds.1 mph100%30.07 "Hg4 mi
8:20 AM48 °FFog.2 mph94%30.07 "Hg3 mi
Weather by CustomWeather, © 2014

See weather overview